Tianmu 1-15

operational
NORAD ID: 58700 Int'l Des: 2024-004 Owner: TIANMU Country: CN
LEOCIRCULARRETROGRADESSO

关于 Tianmu 1-15

正在加载描述...

实时位置

正在加载3D地球...

即将过境

高度历史

Altitude vs Time

uPlot chart will show altitude changes over time

两行轨道根数

1 58700U 24004A 26063.21169865 .00009520 00000-0 37570-3 0 9996
2 58700 97.4660 249.4577 0007147 9.4707 350.6664 15.25735846119768
Epoch: Mar 4, 2026 • Age: 19 hours

当前状态

高度 494.2 km
速度 7.62 km/s
星下点 54.09°N, 144.84°E
发射日期 Jan 5, 2024
运行时间 2.1 years
类型 other

技术详情

分类 Payload
质量 50.00 kg
干质量 50.00 kg
总质量 50.00 kg
长度 1.50 m
直径 1.00 m
跨度 1.50 m
形状 Box
制造商 TIANMU
平台类型 Tianmu
阶段状态 In Orbit
所有者/国家 TIANMU/CN

大型星座

Loading constellations...